Flagge von USA

Wetter-Rückblick Missoula, Montana, USA – gestern, letzte Wochen & Monate

Aktuell:-1 °C. Eisnebel. (Wetterstation: Missoula International Airport, USA). Zur Wetterübersicht

Wetter-Rückblick für Missoula — Graph

Temperatur gestern in Missoula

Höchsttemperatur gestern: -2 °C (um 18:53 Uhr)
Tiefsttemperatur gestern: -7 °C (um 03:53 Uhr)
Durchschnittstemperatur gestern: -4 °C

Tiefst- und Höchstwerte der vergangenen Wochen

 TemperaturLuftfeuchteDruck
Höchst8 °C (13. Jan, 06:53)100% (7. Jan, 08:53)1037 hPa (7. Jan, 08:53)
Tiefst-7 °C (10. Jan, 06:53)33% (14. Jan, 14:53)1005 hPa (13. Jan, 06:53)
Durchschnitt0 °C80%1024 hPa
* Abgerufen 1. Jan 18:53 — 16. Jan 18:53, Missoula. Wetterdaten von CustomWeather, © 2016

Hinweis: Spiegelt tatsächliche Extremwerte möglicherweise nicht korrekt wider, wenn diese zwischen den Ableseintervallen aufgetreten sind.

Missoula Wetterrückblick

Nach rechts scrollen
 WetterbedingungenBioklima  
Uhrzeit TempWetterWind LuftfeuchteBarometerSicht
18:53
Sa, 16. Jan
-1 °CEisnebel.Windstill100%1029 hPa8 km
17:53-1 °CEisnebel.6 km/h100%1029 hPa10 km
16:53-1 °CSonnig.Windstill100%1029 hPa13 km
15:53-1 °CSonnig.6 km/h100%1030 hPa13 km
14:530 °CSonnig.Windstill96%1030 hPa11 km
13:53-1 °CEisnebel.7 km/h96%1031 hPa8 km
12:53-1 °CEisnebel.Windstill92%1032 hPa8 km
12:28-1 °CEisnebel.Windstill92%1028 hPa5 km
12:19-2 °CEisnebel.7 km/h96%1028 hPa3 km
11:53-2 °CEisnebel.6 km/h96%1033 hPa1 km
11:09-3 °CEisnebel.7 km/h100%1029 hPa0 km
10:53-3 °CEisnebel.Windstill100%1033 hPa2 km
10:06-3 °CEisnebel.Windstill96%1029 hPa2 km
09:53-3 °CEisnebel.6 km/h96%1033 hPa3 km
09:37-3 °CEisnebel.Windstill100%1029 hPa1 km
08:53-3 °CEisnebel.Windstill96%1033 hPa0 km
08:28-3 °CEisnebel.Windstill96%1028 hPa1 km
08:07-4 °CEisnebel.Windstill96%1028 hPa2 km
07:53-4 °CLeichter Schneefall. Eisnebel.Windstill100%1032 hPa0 km
06:53-3 °CEisnebel.Windstill96%1032 hPa0 km
05:55-3 °CEisnebel.6 km/h100%1027 hPa0 km
04:53-4 °CEisnebel.7 km/h100%1032 hPa0 km
03:53-4 °CEisnebel.Windstill100%1032 hPa0 km
02:53-4 °CEisnebel.6 km/h100%1032 hPa0 km
01:53-4 °CEisnebel.6 km/h100%1032 hPa0 km
01:43-5 °CEisnebel.6 km/h100%1028 hPa2 km
00:53-6 °CEisnebel.7 km/h100%1032 hPa10 km
00:24-4 °CEisnebel.Windstill96%1028 hPa10 km
23:53
Fr, 15. Jan
-5 °CEisnebel.7 km/h100%1032 hPa10 km
23:32-4 °CMeist bewölkt.7 km/h100%1027 hPa11 km
22:53-4 °CBedeckt.9 km/h100%1031 hPa11 km
22:27-6 °CMeist bewölkt.9 km/h100%1026 hPa11 km
22:06-7 °CEisnebel.7 km/h100%1026 hPa10 km
21:53-5 °CNiedrige Wolken.6 km/h100%1030 hPa11 km
21:16-5 °CEisnebel.6 km/h100%1026 hPa6 km
21:14-4 °CEisnebel.6 km/h100%1026 hPa2 km
20:53-5 °CEisnebel.Windstill100%1030 hPa0 km
20:30-4 °CEisnebel.9 km/h100%1025 hPa10 km
Wetterdaten von CustomWeather, © 2021

Wetter-Übersicht